When you browse on this site, cookies collect data to enhance your experience and personalize the content and advertising you see.
Visit our Privacy Policy to learn more. By continuing to use the site, you agree to this use of cookies and data.
  • In Österreich
  • Länderverzeichnis
  • Für 7 Tage
  • Wassertemperatur
  • Wetterkarte
  • News
  • Widgets
  • user-avatar
    Anmelden

    Stündliche Wetter Zastavtsi

    Heute, 22 August, Donnerstag

    Zeit Temperatur Niederschläge Wind Luftdruck Luftfeuchtigkeit
    00:00 +20°C° 0 mm 4 m/S 742 mmHg 82%
    01:00 +20°C° 0 mm 5 m/S 742 mmHg 87%
    02:00 +19°C° 0 mm 6 m/S 742 mmHg 91%
    03:00 +19°C° 0 mm 6 m/S 742 mmHg 90%
    04:00 +17°C° 0 mm 5 m/S 742 mmHg 89%
    05:00 +16°C° 0 mm 5 m/S 742 mmHg 88%
    06:00 +16°C° 0 mm 5 m/S 743 mmHg 88%
    07:00 +16°C° 0 mm 5 m/S 743 mmHg 87%
    08:00 +16°C° 0 mm 5 m/S 744 mmHg 87%
    09:00 +17°C° 0 mm 5 m/S 744 mmHg 84%
    10:00 +17°C° 0 mm 5 m/S 744 mmHg 81%
    11:00 +19°C° 0 mm 5 m/S 744 mmHg 79%
    12:00 +20°C° 0 mm 5 m/S 744 mmHg 76%
    13:00 +21°C° 0 mm 5 m/S 744 mmHg 74%
    14:00 +22°C° 0 mm 5 m/S 744 mmHg 71%
    15:00 +22°C° 0 mm 5 m/S 744 mmHg 70%
    16:00 +23°C° 0 mm 5 m/S 744 mmHg 69%
    17:00 +23°C° 0 mm 5 m/S 744 mmHg 68%
    18:00 +22°C° 0 mm 4 m/S 744 mmHg 73%
    19:00 +20°C° 0 mm 4 m/S 744 mmHg 78%
    20:00 +19°C° 0 mm 3 m/S 744 mmHg 83%
    21:00 +18°C° 0 mm 3 m/S 744 mmHg 84%
    22:00 +17°C° 0 mm 3 m/S 744 mmHg 86%
    23:00 +17°C° 0 mm 3 m/S 744 mmHg 87%

    Morgen, 23 August, Freitag

    Zeit Temperatur Niederschläge Wind Luftdruck Luftfeuchtigkeit
    00:00 +16°C° 0 mm 3 m/S 744 mmHg 89%
    01:00 +16°C° 0 mm 3 m/S 744 mmHg 91%
    02:00 +14°C° 0 mm 3 m/S 744 mmHg 93%
    03:00 +14°C° 0 mm 3 m/S 744 mmHg 94%
    04:00 +14°C° 0 mm 3 m/S 744 mmHg 95%
    05:00 +14°C° 0 mm 3 m/S 744 mmHg 96%
    06:00 +16°C° 0 mm 3 m/S 744 mmHg 91%
    07:00 +17°C° 0 mm 4 m/S 744 mmHg 86%
    08:00 +18°C° 0 mm 4 m/S 744 mmHg 81%
    09:00 +19°C° 0 mm 4 m/S 745 mmHg 75%
    10:00 +21°C° 0 mm 4 m/S 745 mmHg 70%
    11:00 +22°C° 0 mm 4 m/S 745 mmHg 65%
    12:00 +23°C° 0 mm 4 m/S 745 mmHg 62%
    13:00 +25°C° 0 mm 4 m/S 745 mmHg 59%
    14:00 +25°C° 0 mm 4 m/S 744 mmHg 56%
    15:00 +25°C° 0 mm 4 m/S 744 mmHg 57%
    16:00 +23°C° 0 mm 4 m/S 744 mmHg 58%
    17:00 +23°C° 0 mm 4 m/S 744 mmHg 59%
    18:00 +21°C° 0 mm 4 m/S 744 mmHg 65%
    19:00 +19°C° 0 mm 3 m/S 744 mmHg 70%
    20:00 +17°C° 0 mm 3 m/S 744 mmHg 75%
    21:00 +17°C° 0 mm 3 m/S 744 mmHg 75%
    22:00 +16°C° 0 mm 3 m/S 744 mmHg 75%
    23:00 +16°C° 0 mm 2 m/S 744 mmHg 75%

    übermorgen, 24 August, Samstag

    Zeit Temperatur Niederschläge Wind Luftdruck Luftfeuchtigkeit
    00:00 +15°C° 0 mm 2 m/S 744 mmHg 76%
    01:00 +15°C° 0 mm 2 m/S 744 mmHg 77%
    02:00 +14°C° 0 mm 2 m/S 744 mmHg 79%
    03:00 +14°C° 0 mm 2 m/S 744 mmHg 80%
    04:00 +13°C° 0 mm 2 m/S 744 mmHg 81%
    05:00 +13°C° 0 mm 2 m/S 744 mmHg 83%
    06:00 +15°C° 0 mm 2 m/S 744 mmHg 79%
    07:00 +16°C° 0 mm 3 m/S 744 mmHg 76%
    08:00 +18°C° 0 mm 3 m/S 744 mmHg 72%
    09:00 +19°C° 0 mm 3 m/S 744 mmHg 65%
    10:00 +21°C° 0 mm 3 m/S 744 mmHg 58%
    11:00 +24°C° 0 mm 3 m/S 744 mmHg 50%
    12:00 +25°C° 0 mm 3 m/S 744 mmHg 47%
    13:00 +25°C° 0 mm 3 m/S 744 mmHg 44%
    14:00 +26°C° 0 mm 3 m/S 744 mmHg 40%
    15:00 +26°C° 0 mm 3 m/S 744 mmHg 44%
    16:00 +25°C° 0 mm 3 m/S 743 mmHg 48%
    17:00 +25°C° 0 mm 3 m/S 743 mmHg 51%
    18:00 +22°C° 0 mm 3 m/S 743 mmHg 56%
    19:00 +20°C° 0 mm 3 m/S 743 mmHg 61%
    20:00 +18°C° 0 mm 3 m/S 743 mmHg 66%
    21:00 +17°C° 0 mm 3 m/S 743 mmHg 67%
    22:00 +17°C° 0 mm 2 m/S 743 mmHg 68%
    23:00 +16°C° 0 mm 2 m/S 743 mmHg 69%

    25 August, Sonntag

    Zeit Temperatur Niederschläge Wind Luftdruck Luftfeuchtigkeit
    00:00 +16°C° 0 mm 2 m/S 743 mmHg 68%
    01:00 +16°C° 0 mm 2 m/S 743 mmHg 67%
    02:00 +15°C° 0 mm 2 m/S 743 mmHg 66%
    03:00 +15°C° 0 mm 2 m/S 743 mmHg 65%
    04:00 +15°C° 0 mm 2 m/S 743 mmHg 65%
    05:00 +14°C° 0 mm 2 m/S 743 mmHg 65%
    06:00 +16°C° 0 mm 2 m/S 743 mmHg 64%
    07:00 +17°C° 0 mm 3 m/S 743 mmHg 64%
    08:00 +18°C° 0 mm 3 m/S 743 mmHg 64%
    09:00 +20°C° 0 mm 3 m/S 743 mmHg 60%
    10:00 +22°C° 0 mm 3 m/S 743 mmHg 56%
    11:00 +25°C° 0 mm 4 m/S 744 mmHg 53%
    12:00 +26°C° 0 mm 4 m/S 743 mmHg 51%
    13:00 +26°C° 0 mm 3 m/S 743 mmHg 50%
    14:00 +27°C° 0 mm 3 m/S 743 mmHg 48%
    15:00 +26°C° 0 mm 3 m/S 743 mmHg 50%
    16:00 +26°C° 0 mm 3 m/S 742 mmHg 52%
    17:00 +25°C° 0 mm 3 m/S 742 mmHg 53%
    18:00 +22°C° 0 mm 3 m/S 742 mmHg 58%
    19:00 +20°C° 0 mm 3 m/S 742 mmHg 62%
    20:00 +19°C° 0 mm 3 m/S 743 mmHg 67%
    21:00 +18°C° 0 mm 3 m/S 743 mmHg 67%
    22:00 +17°C° 0 mm 3 m/S 743 mmHg 67%
    23:00 +17°C° 0 mm 3 m/S 743 mmHg 67%

    26 August, Montag

    Zeit Temperatur Niederschläge Wind Luftdruck Luftfeuchtigkeit
    00:00 +16°C° 0 mm 3 m/S 743 mmHg 68%
    01:00 +16°C° 0 mm 2 m/S 743 mmHg 69%
    02:00 +15°C° 0 mm 2 m/S 743 mmHg 69%
    03:00 +15°C° 0 mm 2 m/S 743 mmHg 72%
    04:00 +15°C° 0 mm 2 m/S 743 mmHg 75%
    05:00 +14°C° 0 mm 2 m/S 743 mmHg 78%
    06:00 +16°C° 0 mm 3 m/S 743 mmHg 75%
    07:00 +18°C° 0 mm 3 m/S 743 mmHg 72%
    08:00 +19°C° 0 mm 3 m/S 743 mmHg 69%
    09:00 +21°C° 0 mm 3 m/S 744 mmHg 63%
    10:00 +24°C° 0 mm 3 m/S 744 mmHg 57%
    11:00 +26°C° 0 mm 4 m/S 744 mmHg 51%
    12:00 +27°C° 0 mm 3 m/S 744 mmHg 48%
    13:00 +27°C° 0 mm 3 m/S 743 mmHg 45%
    14:00 +28°C° 0 mm 3 m/S 743 mmHg 42%
    15:00 +28°C° 0 mm 3 m/S 743 mmHg 45%
    16:00 +28°C° 0 mm 3 m/S 742 mmHg 47%
    17:00 +28°C° 0 mm 2 m/S 742 mmHg 49%
    18:00 +25°C° 0 mm 3 m/S 742 mmHg 56%
    19:00 +22°C° 0 mm 3 m/S 742 mmHg 63%
    20:00 +20°C° 0 mm 3 m/S 742 mmHg 71%
    21:00 +20°C° 0 mm 3 m/S 742 mmHg 69%
    22:00 +19°C° 0 mm 3 m/S 742 mmHg 66%
    23:00 +18°C° 0 mm 3 m/S 742 mmHg 64%

    27 August, Dienstag

    Zeit Temperatur Niederschläge Wind Luftdruck Luftfeuchtigkeit
    00:00 +18°C° 0 mm 3 m/S 742 mmHg 65%
    01:00 +17°C° 0 mm 3 m/S 742 mmHg 67%
    02:00 +17°C° 0 mm 3 m/S 741 mmHg 68%
    03:00 +16°C° 0 mm 3 m/S 741 mmHg 69%
    04:00 +16°C° 0 mm 2 m/S 741 mmHg 69%
    05:00 +16°C° 0 mm 2 m/S 741 mmHg 69%
    06:00 +17°C° 0 mm 2 m/S 741 mmHg 66%
    07:00 +19°C° 0 mm 2 m/S 741 mmHg 62%
    08:00 +20°C° 0 mm 3 m/S 741 mmHg 59%
    09:00 +22°C° 0 mm 3 m/S 741 mmHg 55%
    10:00 +25°C° 0 mm 3 m/S 741 mmHg 50%
    11:00 +27°C° 0 mm 3 m/S 741 mmHg 46%
    12:00 +27°C° 0 mm 2 m/S 741 mmHg 44%
    13:00 +28°C° 0 mm 2 m/S 741 mmHg 43%
    14:00 +29°C° 0 mm 2 m/S 740 mmHg 41%
    15:00 +28°C° 0 mm 2 m/S 740 mmHg 43%
    16:00 +28°C° 0 mm 2 m/S 740 mmHg 45%
    17:00 +28°C° 0 mm 2 m/S 740 mmHg 47%
    18:00 +26°C° 0 mm 2 m/S 740 mmHg 53%
    19:00 +22°C° 0 mm 3 m/S 739 mmHg 59%
    20:00 +20°C° 0 mm 3 m/S 739 mmHg 65%
    21:00 +19°C° 0 mm 3 m/S 740 mmHg 65%
    22:00 +19°C° 0 mm 3 m/S 740 mmHg 66%
    23:00 +18°C° 0 mm 2 m/S 740 mmHg 67%
    Mehr zeigen